Location: Bluff Heights
(33.7692°N, 118.1592°W)
Time: 06:20:58
(UTC+00:00)

X-37B - Visible Passes

Search period start: 24 June 2021 00:00
Search period end: 04 July 2021 00:00
Orbit: 386 x 389 km, 45.0° (Epoch: 10 June)

Date Brightness Start Highest point End Pass type
(mag) Time Alt. Az. Time Alt. Az. Time Alt. Az.
24 Jun 0.6 04:09:26 10° WSW 04:12:36 81° NNW 04:15:47 10° NE visible
24 Jun 3.6 05:47:27 10° WNW 05:49:36 17° NNW 05:51:46 10° NNE visible
25 Jun 3.1 04:48:22 10° W 04:51:02 24° NNW 04:53:42 10° NE visible
25 Jun 4.0 06:27:24 10° NNW 06:28:28 11° N 06:29:00 11° N visible
26 Jun 2.1 03:49:32 10° W 03:52:32 39° NNW 03:55:34 10° NE visible
26 Jun 3.8 05:28:12 10° NW 05:29:47 13° N 05:31:22 10° NNE visible
27 Jun 3.6 04:28:59 10° WNW 04:31:08 17° NNW 04:33:18 10° NNE visible
27 Jun 3.9 06:07:45 10° NNW 06:08:42 11° N 06:09:38 10° NNE visible
28 Jun 3.8 05:08:56 10° NNW 05:10:01 11° N 05:11:04 10° NNE visible
28 Jun 4.2 06:45:40 10° NNW 06:45:52 11° NNW 06:45:52 11° NNW visible
29 Jun 3.7 04:09:44 10° NW 04:11:19 13° N 04:12:53 10° NNE visible
29 Jun 3.7 05:47:34 10° NNW 05:48:56 12° N 05:49:47 11° NNE visible
30 Jun 3.7 04:49:17 10° NNW 04:50:15 11° N 04:51:12 10° NNE visible
30 Jun 3.9 06:25:14 10° NNW 06:25:58 14° NNW 06:25:58 14° NNW visible
01 Jul 3.7 03:50:28 10° NNW 03:51:33 11° N 03:52:36 10° NNE visible
01 Jul 3.3 05:27:11 10° NNW 05:29:08 15° NNE 05:29:51 14° NNE visible
02 Jul 3.5 04:29:06 10° NNW 04:30:29 12° N 04:31:52 10° NE visible
02 Jul 3.5 06:04:53 10° NW 06:06:01 18° NNW 06:06:01 18° NNW visible
03 Jul 2.7 05:06:46 10° NNW 05:09:16 21° NNE 05:09:56 19° NE visible
